Starlink 35833

operational
NORAD ID: 66542 Int'l Des: 2025-265 Owner: SPXS Country: US Constellation: starlink
LEOCIRCULAR

关于 Starlink 35833

正在加载描述...

实时位置

正在加载3D地球...

即将过境

高度历史

Altitude vs Time

uPlot chart will show altitude changes over time

两行轨道根数

1 66542U 25265AC 26062.05688449 .00021235 00000-0 77868-3 0 9995
2 66542 42.9945 315.8611 0000495 341.8930 18.1904 15.27591591 16093
Epoch: Mar 3, 2026 • Age: 35 hours

当前状态

高度 495.8 km
速度 7.62 km/s
星下点 -42.08°S, 131.67°W
发射日期 Nov 19, 2025
运行时间 0.2 years
类型 internet

技术详情

分类 Payload
质量 575.00 kg
干质量 530.00 kg
总质量 575.00 kg
长度 0.30 m
直径 4.10 m
跨度 29.00 m
形状 Box + pan
制造商 SPXS
平台类型 Starlink V2MO
阶段状态 In Orbit
所有者/国家 SPXS/US

大型星座

Loading constellations...